This demonstration page uses our WeatherBlox Daily Observations layout. Learn more.

Left ArrowRight Arrow

Hourly Observations for August 3, 2020

Temp ( °F °C ) Dew Point ( °F °C ) Humidity (%) Winds ( mph kmh ) Pressure ( in mb ) Visibility ( mi km ) Precip ( " mm )
12:53 am 00:53 Clear 61 16.1 55 12.8 81 81 NNE 3 6 30.15 1021 10 16 0.00 0.00
1:53 am 01:53 Clear 59 15 54 12.2 83 83 Calm 30.15 1021 10 16 0.00 0.00
2:53 am 02:53 Clear 59 15 54 12.2 83 83 Calm 30.15 1021 10 16 0.00 0.00
3:53 am 03:53 Clear 57 13.9 53 11.7 87 87 Calm 30.14 1021 10 16 0.00 0.00
4:53 am 04:53 Clear 56 13.3 53 11.7 90 90 WNW 3 6 30.14 1021 10 16 0.00 0.00
5:53 am 05:53 Clear 56 13.3 53 11.7 90 90 Calm 30.14 1021 10 16 0.00 0.00
6:53 am 06:53 Sunny 56 13.3 53 11.7 90 90 Calm 30.15 1021 10 16 0.00 0.00
7:53 am 07:53 Sunny 61 16.1 56 13.3 84 84 Calm 30.16 1021 10 16 0.00 0.00
8:53 am 08:53 Sunny 66 18.9 58 14.4 75 75 Calm 30.17 1022 10 16 0.00 0.00
9:53 am 09:53 Sunny 69 20.6 59 15 70 70 W 3 6 30.18 1022 10 16 0.00 0.00
10:53 am 10:53 Sunny 72 22.2 57 13.9 59 59 VRB 3 6 30.18 1022 10 16 0.00 0.00
11:53 am 11:53 Sunny 73 22.8 56 13.3 55 55 Calm 30.17 1022 10 16 0.00 0.00
12:53 pm 12:53 Partly Cloudy 74 23.3 56 13.3 54 54 NW 5 7 30.16 1021 10 16 0.00 0.00
1:53 pm 13:53 Partly Cloudy 76 24.4 55 12.8 48 48 E 6 9 30.15 1021 10 16 0.00 0.00
2:53 pm 14:53 Mostly Cloudy 75 23.9 56 13.3 52 52 NNE 6 9 30.13 1020 10 16 0.00 0.00
3:53 pm 15:53 Sunny 78 25.6 56 13.3 47 47 ENE 5 7 30.12 1020 10 16 0.00 0.00
4:53 pm 16:53 Mostly Cloudy 74 23.3 57 13.9 56 56 SE 6 9 30.12 1020 10 16 0.00 0.00
5:53 pm 17:53 Cloudy 75 23.9 57 13.9 54 54 ESE 6 9 30.10 1019 10 16 0.00 0.00
6:53 pm 18:53 Partly Cloudy 73 22.8 57 13.9 57 57 SE 8 13 30.09 1019 10 16 0.00 0.00
7:53 pm 19:53 Sunny 71 21.7 59 15 66 66 ESE 9 15 30.09 1019 10 16 0.00 0.00
8:53 pm 20:53 Clear 68 20 57 13.9 68 68 SE 9 15 30.10 1019 10 16 0.00 0.00
9:53 pm 21:53 Clear 66 18.9 57 13.9 73 73 ESE 9 15 30.13 1020 10 16 0.00 0.00
10:53 pm 22:53 Clear 64 17.8 57 13.9 78 78 ESE 9 15 30.15 1021 10 16 0.00 0.00
11:53 pm 23:53 Clear 64 17.8 56 13.3 75 75 SE 8 13 30.15 1021 10 16 0.00 0.00

Powered by AerisWeather